{"data":{"norad_id":68151,"epoch":"2026-09-19T07:57:36.606816Z","epoch_age_seconds":156013,"freshness":"FRESH","line1":"1 68151U 26049K   26262.33167369  .00016716  00000+0  51886-3 0  9999","line2":"2 68151  97.2852 282.3284 0001094 101.6833 258.4532 15.33451342 29327","mean_motion":15.33451342,"eccentricity":0.0001094,"inclination_deg":97.2852,"raan_deg":282.3284,"arg_perigee_deg":101.6833,"mean_anomaly_deg":258.4532,"bstar":0.00051886,"rev_number":2932,"period_min":93.905816282497,"perigee_km":464.77560866635,"apogee_km":466.27300175993,"semimajor_km":6843.6613052131,"source":"CELESTRAK","updated_at":"2026-09-20T09:00:43.793420Z"}}